WAT3630 SGAS-SUMU

Flight info

Callsign WAT3630
Flight time 1h 23m
Altitude 36000
Route ITAPE ASATI UP526 GEMSU/N0457F350 UP526 MONSA
Aircraft A21N/M-SDE3FGHIRWY/LB1

Departure

Time 2026-04-25 01:03
Airport Silvio Pettirossi International Airport (SGAS)

Arrival

Time 2026-04-25 02:26
Airport Carrasco General Cesáreo L. Berisso International Airport (SUMU)
Time Latitude Longitude Altitude Speed Heading
2026-04-25 00:51 -25.24236 -57.51551 293 ft 0 kts 101°
2026-04-25 00:54 -25.24235 -57.51553 292 ft 0 kts 101°
2026-04-25 00:55 -25.24235 -57.51554 292 ft 0 kts 101°
2026-04-25 00:55 -25.24233 -57.51567 292 ft 2 kts 100°
2026-04-25 00:55 -25.24231 -57.51578 291 ft 1 kts 101°
2026-04-25 00:56 -25.24231 -57.51595 290 ft 2 kts 66°
2026-04-25 00:56 -25.24240 -57.51608 289 ft 2 kts 37°
2026-04-25 00:56 -25.24249 -57.51614 289 ft 0 kts 15°
2026-04-25 00:56 -25.24256 -57.51616 289 ft 0 kts 12°
2026-04-25 00:57 -25.24257 -57.51616 289 ft 0 kts 13°
2026-04-25 00:57 -25.24256 -57.51616 289 ft 0 kts 13°
2026-04-25 00:59 -25.24248 -57.51614 289 ft 1 kts 13°
2026-04-25 00:59 -25.24231 -57.51609 289 ft 3 kts 13°
2026-04-25 00:59 -25.24204 -57.51603 289 ft 4 kts 13°
2026-04-25 00:59 -25.24167 -57.51594 289 ft 6 kts 13°
2026-04-25 01:00 -25.24120 -57.51584 288 ft 7 kts
2026-04-25 01:00 -25.24062 -57.51604 286 ft 10 kts 330°
2026-04-25 01:00 -25.23984 -57.51658 281 ft 15 kts 326°
2026-04-25 01:00 -25.23877 -57.51673 278 ft 16 kts 10°
2026-04-25 01:01 -25.23764 -57.51646 277 ft 16 kts 13°
2026-04-25 01:01 -25.23646 -57.51617 275 ft 17 kts 12°
2026-04-25 01:01 -25.23517 -57.51586 273 ft 19 kts 12°
2026-04-25 01:01 -25.23386 -57.51556 272 ft 19 kts 14°
2026-04-25 01:02 -25.23255 -57.51521 271 ft 19 kts 13°
2026-04-25 01:02 -25.23123 -57.51502 268 ft 19 kts 333°
2026-04-25 01:02 -25.23062 -57.51635 264 ft 19 kts 273°
2026-04-25 01:02 -25.23209 -57.51721 265 ft 50 kts 195°
2026-04-25 01:03 -25.23798 -57.51872 271 ft 119 kts 191°
2026-04-25 01:03 -25.24806 -57.52120 292 ft 174 kts 194°
2026-04-25 01:03 -25.26000 -57.52437 880 ft 176 kts 194°
2026-04-25 01:03 -25.27200 -57.52755 1557 ft 180 kts 194°
2026-04-25 01:04 -25.28408 -57.53077 2241 ft 183 kts 194°
2026-04-25 01:04 -25.29668 -57.53411 2812 ft 192 kts 193°
2026-04-25 01:04 -25.31073 -57.53401 3246 ft 211 kts 163°
2026-04-25 01:04 -25.32465 -57.52742 3706 ft 227 kts 153°
2026-04-25 01:05 -25.33936 -57.51942 4135 ft 246 kts 154°
2026-04-25 01:05 -25.35570 -57.51117 4548 ft 267 kts 156°
2026-04-25 01:05 -25.37307 -57.50314 5138 ft 280 kts 158°
2026-04-25 01:05 -25.39162 -57.49505 5793 ft 290 kts 159°
2026-04-25 01:06 -25.41050 -57.48706 6549 ft 296 kts 159°
2026-04-25 01:06 -25.42981 -57.47898 7337 ft 299 kts 160°
2026-04-25 01:06 -25.44951 -57.47078 8098 ft 302 kts 160°
2026-04-25 01:06 -25.46936 -57.46254 8842 ft 305 kts 160°
2026-04-25 01:07 -25.48917 -57.45434 9571 ft 308 kts 160°
2026-04-25 01:07 -25.50938 -57.44595 10268 ft 312 kts 161°
2026-04-25 01:07 -25.53003 -57.43740 10688 ft 325 kts 161°
2026-04-25 01:07 -25.55220 -57.42921 10979 ft 341 kts 169°
2026-04-25 01:08 -25.57597 -57.42656 11272 ft 353 kts 185°
2026-04-25 01:08 -25.60086 -57.43013 11556 ft 366 kts 193°
2026-04-25 01:08 -25.62652 -57.43570 11851 ft 380 kts 194°
2026-04-25 01:08 -25.65267 -57.44158 12379 ft 386 kts 194°
2026-04-25 01:09 -25.67922 -57.44743 12997 ft 389 kts 194°
2026-04-25 01:09 -25.70581 -57.45320 13601 ft 392 kts 195°
2026-04-25 01:09 -25.73269 -57.45898 14179 ft 395 kts 195°
2026-04-25 01:09 -25.75983 -57.46480 14722 ft 398 kts 195°
2026-04-25 01:10 -25.78735 -57.47066 15266 ft 401 kts 195°
2026-04-25 01:10 -25.81453 -57.47645 15800 ft 404 kts 194°
2026-04-25 01:10 -25.84236 -57.48237 16313 ft 408 kts 194°
2026-04-25 01:10 -25.87069 -57.48838 16842 ft 411 kts 195°
2026-04-25 01:11 -25.89858 -57.49429 17332 ft 414 kts 195°
2026-04-25 01:11 -25.92715 -57.50036 17825 ft 417 kts 195°
2026-04-25 01:11 -25.95584 -57.50645 18317 ft 419 kts 195°
2026-04-25 01:11 -25.98451 -57.51252 18798 ft 421 kts 195°
2026-04-25 01:12 -26.01354 -57.51870 19240 ft 423 kts 196°
2026-04-25 01:12 -26.04246 -57.52484 19662 ft 426 kts 195°
2026-04-25 01:12 -26.07202 -57.52985 20084 ft 430 kts 192°
2026-04-25 01:12 -26.10189 -57.53292 20502 ft 435 kts 189°
2026-04-25 01:13 -26.13279 -57.53411 20890 ft 439 kts 187°
2026-04-25 01:13 -26.16316 -57.53451 21261 ft 441 kts 187°
2026-04-25 01:13 -26.19411 -57.53476 21617 ft 443 kts 187°
2026-04-25 01:13 -26.22511 -57.53501 21966 ft 445 kts 187°
2026-04-25 01:14 -26.25628 -57.53528 22320 ft 447 kts 187°
2026-04-25 01:14 -26.28717 -57.53558 22679 ft 449 kts 187°
2026-04-25 01:14 -26.31891 -57.53591 23011 ft 451 kts 187°
2026-04-25 01:14 -26.35041 -57.53626 23347 ft 454 kts 187°
2026-04-25 01:15 -26.38227 -57.53661 23688 ft 456 kts 187°
2026-04-25 01:15 -26.41383 -57.53694 24056 ft 458 kts 187°
2026-04-25 01:15 -26.44597 -57.53728 24381 ft 460 kts 187°
2026-04-25 01:15 -26.47787 -57.53763 24676 ft 463 kts 187°
2026-04-25 01:16 -26.51036 -57.53798 25015 ft 465 kts 188°
2026-04-25 01:16 -26.54295 -57.53833 25313 ft 467 kts 187°
2026-04-25 01:16 -26.57591 -57.53869 25643 ft 469 kts 187°
2026-04-25 01:16 -26.60821 -57.53902 25966 ft 470 kts 188°
2026-04-25 01:17 -26.64119 -57.53936 26243 ft 473 kts 188°
2026-04-25 01:17 -26.66346 -57.53960 26432 ft 474 kts 188°
2026-04-25 01:17 -26.70736 -57.54007 26815 ft 476 kts 188°
2026-04-25 01:17 -26.74077 -57.54042 27207 ft 475 kts 188°
2026-04-25 01:18 -26.77380 -57.54075 27594 ft 474 kts 188°
2026-04-25 01:18 -26.80726 -57.54108 27979 ft 472 kts 188°
2026-04-25 01:18 -26.84034 -57.54145 28335 ft 472 kts 189°
2026-04-25 01:18 -26.87348 -57.54194 28707 ft 470 kts 189°
2026-04-25 01:19 -26.90578 -57.54282 29103 ft 468 kts 190°
2026-04-25 01:19 -26.93862 -57.54384 29470 ft 467 kts 190°
2026-04-25 01:19 -26.97112 -57.54487 29831 ft 467 kts 190°
2026-04-25 01:19 -27.00361 -57.54585 30224 ft 465 kts 190°
2026-04-25 01:20 -27.03598 -57.54682 30605 ft 464 kts 191°
2026-04-25 01:20 -27.06797 -57.54776 30960 ft 463 kts 191°
2026-04-25 01:20 -27.10051 -57.54872 31276 ft 463 kts 191°
2026-04-25 01:20 -27.13289 -57.54968 31584 ft 463 kts 191°
2026-04-25 01:21 -27.16484 -57.55061 31932 ft 462 kts 191°
2026-04-25 01:21 -27.19686 -57.55152 32239 ft 461 kts 191°
2026-04-25 01:21 -27.22919 -57.55245 32552 ft 460 kts 191°
2026-04-25 01:21 -27.26087 -57.55338 32816 ft 460 kts 191°
2026-04-25 01:22 -27.29306 -57.55432 33078 ft 460 kts 191°
2026-04-25 01:22 -27.32494 -57.55526 33413 ft 458 kts 191°
2026-04-25 01:22 -27.35702 -57.55617 33743 ft 456 kts 191°
2026-04-25 01:22 -27.38880 -57.55707 34080 ft 454 kts 191°
2026-04-25 01:23 -27.42028 -57.55799 34359 ft 452 kts 192°
2026-04-25 01:23 -27.45192 -57.55906 34595 ft 451 kts 192°
2026-04-25 01:23 -27.48352 -57.56038 34747 ft 452 kts 192°
2026-04-25 01:23 -27.51519 -57.56173 34926 ft 453 kts 192°
2026-04-25 01:24 -27.54661 -57.56307 35152 ft 452 kts 192°
2026-04-25 01:24 -27.57804 -57.56439 35310 ft 452 kts 193°
2026-04-25 01:24 -27.60955 -57.56570 35482 ft 452 kts 193°
2026-04-25 01:24 -27.64073 -57.56701 35641 ft 452 kts 192°
2026-04-25 01:25 -27.67232 -57.56834 35771 ft 453 kts 192°
2026-04-25 01:25 -27.70402 -57.56965 35890 ft 454 kts 192°
2026-04-25 01:25 -27.73575 -57.57096 35978 ft 454 kts 193°
2026-04-25 01:26 -27.79902 -57.57355 35978 ft 454 kts 193°
2026-04-25 01:26 -27.86216 -57.57618 35980 ft 453 kts 193°
2026-04-25 01:27 -27.92494 -57.57876 35982 ft 454 kts 193°
2026-04-25 01:27 -27.98822 -57.58139 35984 ft 452 kts 193°
2026-04-25 01:28 -28.08289 -57.58532 35984 ft 453 kts 193°
2026-04-25 01:28 -28.14573 -57.58792 35988 ft 453 kts 193°
2026-04-25 01:29 -28.20873 -57.59051 35994 ft 453 kts 193°
2026-04-25 01:29 -28.27211 -57.59213 35996 ft 453 kts 192°
2026-04-25 01:30 -28.33511 -57.59347 35994 ft 454 kts 193°
2026-04-25 01:30 -28.39828 -57.59491 35994 ft 454 kts 193°
2026-04-25 01:31 -28.46122 -57.59639 35995 ft 453 kts 193°
2026-04-25 01:31 -28.52460 -57.59785 35994 ft 452 kts 193°
2026-04-25 01:32 -28.58748 -57.59934 35991 ft 453 kts 193°
2026-04-25 01:32 -28.65075 -57.60084 35997 ft 453 kts 193°
2026-04-25 01:33 -28.71386 -57.60233 35996 ft 453 kts 193°
2026-04-25 01:33 -28.77691 -57.60383 35997 ft 453 kts 193°
2026-04-25 01:34 -28.84000 -57.60531 35997 ft 452 kts 193°
2026-04-25 01:34 -28.90305 -57.60680 35995 ft 452 kts 193°
2026-04-25 01:35 -28.96603 -57.60829 35994 ft 452 kts 194°
2026-04-25 01:35 -29.02882 -57.60980 35993 ft 452 kts 194°
2026-04-25 01:36 -29.09168 -57.61129 35998 ft 453 kts 194°
2026-04-25 01:36 -29.15507 -57.61281 35998 ft 452 kts 194°
2026-04-25 01:37 -29.21767 -57.61427 36000 ft 453 kts 194°
2026-04-25 01:37 -29.28083 -57.61579 35999 ft 453 kts 194°
2026-04-25 01:38 -29.34359 -57.61721 35996 ft 451 kts 194°
2026-04-25 01:38 -29.40642 -57.61862 35994 ft 451 kts 194°
2026-04-25 01:39 -29.46927 -57.62005 35995 ft 451 kts 194°
2026-04-25 01:39 -29.53200 -57.62150 35996 ft 452 kts 195°
2026-04-25 01:40 -29.59520 -57.62292 35993 ft 451 kts 195°
2026-04-25 01:40 -29.65805 -57.62436 35998 ft 452 kts 195°
2026-04-25 01:41 -29.72115 -57.62582 35993 ft 453 kts 195°
2026-04-25 01:41 -29.78394 -57.62723 35996 ft 451 kts 195°
2026-04-25 01:42 -29.84679 -57.62865 35994 ft 450 kts 195°
2026-04-25 01:42 -29.90938 -57.63010 35996 ft 451 kts 195°
2026-04-25 01:43 -29.97207 -57.63153 35995 ft 450 kts 196°
2026-04-25 01:43 -30.00338 -57.63225 35723 ft 450 kts 196°
2026-04-25 01:43 -30.03509 -57.63298 35428 ft 451 kts 196°
2026-04-25 01:44 -30.06651 -57.63374 35136 ft 452 kts 196°
2026-04-25 01:44 -30.09797 -57.63444 35002 ft 451 kts 196°
2026-04-25 01:44 -30.16126 -57.63590 35005 ft 454 kts 196°
2026-04-25 01:45 -30.22504 -57.63503 35015 ft 464 kts 191°
2026-04-25 01:45 -30.28991 -57.62591 35018 ft 479 kts 184°
2026-04-25 01:46 -30.35591 -57.60735 35021 ft 494 kts 177°
2026-04-25 01:46 -30.42147 -57.58368 35017 ft 495 kts 176°
2026-04-25 01:47 -30.48724 -57.55970 35017 ft 496 kts 176°
2026-04-25 01:47 -30.55311 -57.53595 35021 ft 495 kts 176°
2026-04-25 01:48 -30.61920 -57.51214 35022 ft 495 kts 177°
2026-04-25 01:48 -30.68551 -57.48829 35019 ft 495 kts 177°
2026-04-25 01:49 -30.75128 -57.46459 35019 ft 498 kts 177°
2026-04-25 01:49 -30.81729 -57.44067 35019 ft 494 kts 177°
2026-04-25 01:50 -30.88331 -57.41696 35021 ft 495 kts 178°
2026-04-25 01:50 -30.94953 -57.39314 35021 ft 498 kts 177°
2026-04-25 01:51 -31.01553 -57.36921 35018 ft 497 kts 177°
2026-04-25 01:51 -31.08164 -57.34529 35024 ft 497 kts 177°
2026-04-25 01:52 -31.14762 -57.32137 35028 ft 498 kts 177°
2026-04-25 01:52 -31.21344 -57.29743 35024 ft 496 kts 177°
2026-04-25 01:53 -31.27955 -57.27335 35027 ft 496 kts 177°
2026-04-25 01:53 -31.34531 -57.24943 35028 ft 497 kts 176°
2026-04-25 01:54 -31.41130 -57.22529 35031 ft 496 kts 176°
2026-04-25 01:54 -31.47754 -57.20105 35028 ft 495 kts 176°
2026-04-25 01:55 -31.54294 -57.17710 35027 ft 494 kts 176°
2026-04-25 01:55 -31.60877 -57.15302 35038 ft 498 kts 176°
2026-04-25 01:56 -31.67489 -57.12869 35032 ft 496 kts 176°
2026-04-25 01:56 -31.74088 -57.10437 35030 ft 497 kts 176°
2026-04-25 01:57 -31.83901 -57.06774 35028 ft 494 kts 176°
2026-04-25 01:58 -31.90479 -57.04281 35028 ft 493 kts 176°
2026-04-25 01:58 -31.97024 -57.01860 35030 ft 495 kts 176°
2026-04-25 01:59 -32.03608 -56.99425 35033 ft 495 kts 176°
2026-04-25 01:59 -32.10193 -56.96985 35036 ft 496 kts 176°
2026-04-25 02:00 -32.16730 -56.94546 35038 ft 492 kts 175°
2026-04-25 02:00 -32.23285 -56.92107 35021 ft 496 kts 175°
2026-04-25 02:01 -32.29852 -56.89654 35040 ft 495 kts 175°
2026-04-25 02:01 -32.36388 -56.87207 35026 ft 493 kts 175°
2026-04-25 02:02 -32.42952 -56.84743 35007 ft 491 kts 175°
2026-04-25 02:02 -32.49479 -56.82297 35047 ft 492 kts 174°
2026-04-25 02:03 -32.55973 -56.79854 35028 ft 492 kts 174°
2026-04-25 02:03 -32.62453 -56.77416 35025 ft 489 kts 174°
2026-04-25 02:04 -32.68947 -56.74971 35039 ft 489 kts 174°
2026-04-25 02:04 -32.75384 -56.72538 35039 ft 487 kts 174°
2026-04-25 02:05 -32.81874 -56.70085 35034 ft 490 kts 174°
2026-04-25 02:05 -32.88356 -56.67624 35042 ft 486 kts 174°
2026-04-25 02:06 -32.94755 -56.65193 35010 ft 484 kts 173°
2026-04-25 02:06 -32.97980 -56.63970 34606 ft 486 kts 173°
2026-04-25 02:06 -33.01191 -56.62752 33853 ft 489 kts 173°
2026-04-25 02:06 -33.04421 -56.61528 33019 ft 494 kts 172°
2026-04-25 02:07 -33.07711 -56.60278 32223 ft 497 kts 172°
2026-04-25 02:07 -33.10983 -56.59028 31535 ft 496 kts 171°
2026-04-25 02:07 -33.14284 -56.57762 30897 ft 495 kts 171°
2026-04-25 02:07 -33.17524 -56.56520 30237 ft 492 kts 170°
2026-04-25 02:08 -33.20796 -56.55273 29502 ft 491 kts 170°
2026-04-25 02:08 -33.24042 -56.54039 28681 ft 491 kts 169°
2026-04-25 02:08 -33.27306 -56.52798 27797 ft 492 kts 169°
2026-04-25 02:08 -33.30542 -56.51563 26877 ft 494 kts 168°
2026-04-25 02:09 -33.33818 -56.50314 25988 ft 494 kts 168°
2026-04-25 02:09 -33.37071 -56.49163 25382 ft 485 kts 170°
2026-04-25 02:09 -33.40298 -56.48127 24834 ft 478 kts 171°
2026-04-25 02:09 -33.43514 -56.47121 24210 ft 474 kts 171°
2026-04-25 02:10 -33.46704 -56.46129 23555 ft 471 kts 171°
2026-04-25 02:10 -33.49848 -56.45149 22936 ft 466 kts 171°
2026-04-25 02:10 -33.52953 -56.44177 22330 ft 462 kts 170°
2026-04-25 02:10 -33.56038 -56.43207 21713 ft 459 kts 170°
2026-04-25 02:11 -33.59128 -56.42234 21110 ft 454 kts 170°
2026-04-25 02:11 -33.62176 -56.41274 20529 ft 450 kts 169°
2026-04-25 02:11 -33.65154 -56.40336 19950 ft 446 kts 169°
2026-04-25 02:11 -33.68156 -56.39388 19335 ft 442 kts 169°
2026-04-25 02:12 -33.71102 -56.38456 18748 ft 438 kts 169°
2026-04-25 02:12 -33.74038 -56.37528 18165 ft 434 kts 169°
2026-04-25 02:12 -33.76952 -56.36606 17577 ft 430 kts 169°
2026-04-25 02:12 -33.79837 -56.35692 16986 ft 426 kts 168°
2026-04-25 02:13 -33.82669 -56.34794 16388 ft 423 kts 167°
2026-04-25 02:13 -33.85514 -56.33892 15780 ft 419 kts 167°
2026-04-25 02:13 -33.88296 -56.33011 15193 ft 416 kts 167°
2026-04-25 02:13 -33.91106 -56.32122 14616 ft 412 kts 166°
2026-04-25 02:14 -33.93856 -56.31252 13962 ft 411 kts 166°
2026-04-25 02:14 -33.96631 -56.30373 13362 ft 408 kts 166°
2026-04-25 02:14 -33.99326 -56.29514 12836 ft 403 kts 166°
2026-04-25 02:14 -34.02029 -56.28651 12322 ft 399 kts 166°
2026-04-25 02:15 -34.04680 -56.27804 11810 ft 394 kts 166°
2026-04-25 02:15 -34.07332 -56.26958 11301 ft 390 kts 166°
2026-04-25 02:15 -34.09945 -56.26123 10940 ft 381 kts 166°
2026-04-25 02:15 -34.12460 -56.25320 10757 ft 367 kts 166°
2026-04-25 02:16 -34.14891 -56.24544 10595 ft 354 kts 166°
2026-04-25 02:16 -34.17211 -56.23801 10436 ft 341 kts 166°
2026-04-25 02:16 -34.19481 -56.23075 10283 ft 329 kts 166°
2026-04-25 02:16 -34.21635 -56.22385 10139 ft 317 kts 166°
2026-04-25 02:17 -34.23743 -56.21711 9949 ft 308 kts 166°
2026-04-25 02:17 -34.25805 -56.21051 9658 ft 302 kts 166°
2026-04-25 02:17 -34.27808 -56.20410 9328 ft 298 kts 166°
2026-04-25 02:17 -34.29821 -56.19767 8890 ft 298 kts 166°
2026-04-25 02:18 -34.31811 -56.19130 8507 ft 297 kts 166°
2026-04-25 02:18 -34.33810 -56.18465 8135 ft 295 kts 163°
2026-04-25 02:18 -34.35692 -56.17551 7771 ft 292 kts 154°
2026-04-25 02:18 -34.37473 -56.16365 7419 ft 290 kts 150°
2026-04-25 02:19 -34.39193 -56.15129 7072 ft 287 kts 149°
2026-04-25 02:19 -34.40911 -56.13883 6734 ft 284 kts 149°
2026-04-25 02:19 -34.42592 -56.12668 6402 ft 281 kts 149°
2026-04-25 02:19 -34.44255 -56.11470 6071 ft 279 kts 149°
2026-04-25 02:20 -34.45932 -56.10267 5734 ft 277 kts 149°
2026-04-25 02:20 -34.47573 -56.09091 5403 ft 275 kts 149°
2026-04-25 02:20 -34.49208 -56.07921 5068 ft 273 kts 149°
2026-04-25 02:20 -34.50857 -56.06740 4727 ft 272 kts 149°
2026-04-25 02:21 -34.52473 -56.05581 4401 ft 270 kts 149°
2026-04-25 02:21 -34.54082 -56.04465 4074 ft 268 kts 154°
2026-04-25 02:21 -34.55839 -56.03672 3734 ft 267 kts 167°
2026-04-25 02:21 -34.57690 -56.03386 3405 ft 266 kts 178°
2026-04-25 02:22 -34.59497 -56.03355 3231 ft 257 kts 180°
2026-04-25 02:22 -34.61263 -56.03369 3198 ft 243 kts 180°
2026-04-25 02:22 -34.62899 -56.03370 3166 ft 232 kts 180°
2026-04-25 02:22 -34.64519 -56.03355 3122 ft 231 kts 179°
2026-04-25 02:23 -34.66131 -56.03332 3069 ft 228 kts 179°
2026-04-25 02:23 -34.67667 -56.03309 2904 ft 218 kts 179°
2026-04-25 02:23 -34.69178 -56.03287 2586 ft 214 kts 179°
2026-04-25 02:23 -34.70651 -56.03265 2279 ft 209 kts 179°
2026-04-25 02:24 -34.72077 -56.03245 1980 ft 197 kts 179°
2026-04-25 02:24 -34.73386 -56.03228 1747 ft 182 kts 178°
2026-04-25 02:24 -34.74618 -56.03210 1496 ft 169 kts 178°
2026-04-25 02:24 -34.75755 -56.03194 1273 ft 160 kts 178°
2026-04-25 02:25 -34.76870 -56.03178 1083 ft 159 kts 178°
2026-04-25 02:25 -34.77974 -56.03163 883 ft 158 kts 178°
2026-04-25 02:25 -34.79061 -56.03148 679 ft 156 kts 178°
2026-04-25 02:25 -34.80150 -56.03133 467 ft 155 kts 178°
2026-04-25 02:26 -34.81227 -56.03123 256 ft 153 kts 178°
2026-04-25 02:26 -34.82281 -56.03111 87 ft 151 kts 177°
2026-04-25 02:26 -34.83273 -56.03080 65 ft 114 kts 180°
2026-04-25 02:26 -34.83763 -56.03071 65 ft 27 kts 177°
2026-04-25 02:27 -34.83786 -56.02984 66 ft 11 kts 56°
2026-04-25 02:27 -34.83754 -56.02903 66 ft 10 kts 88°
2026-04-25 02:27 -34.83802 -56.02846 66 ft 11 kts 158°
2026-04-25 02:27 -34.83887 -56.02831 64 ft 13 kts 169°
2026-04-25 02:28 -34.83975 -56.02784 62 ft 14 kts 143°
2026-04-25 02:28 -34.84031 -56.02724 60 ft 3 kts 169°
2026-04-25 02:28 -34.84040 -56.02723 60 ft 0 kts 175°